Location: Eagle Observatory
(42.5300°N, 88.2800°W)
Time: 09:03:24
(UTC-05:00)

HST - Visible Passes

Search period start: 02 September 2014 00:00
Search period end: 12 September 2014 00:00
Orbit: 547 x 552 km, 28.5° (Epoch: 01 September)

Date Brightness Start Highest point End Pass type
(mag) Time Alt. Az. Time Alt. Az. Time Alt. Az.
09 Sep 3.1 19:58:54 10° S 19:59:51 11° S 20:00:48 10° SSE visible
10 Sep 3.1 19:51:23 10° SSW 19:52:43 11° S 19:54:03 10° SSE visible
11 Sep 3.1 19:44:06 10° SSW 19:45:35 12° S 19:47:04 10° SSE visible
